Location: Erskine
(52.3216°N, 112.8806°W)
Time: 12:59:12
(UTC+00:00)

NOAA 15 - Pass Details

Date: 12 December 2023
Orbit: 797 x 810 km, 98.6° (Epoch: 01 March)

Event Time Altitude Azimuth Distance (km) Brightness Sun altitude
Rises 01:19:46 0° 140° (SE) 3,316 7.6 -17.3°
Reaches altitude 10° 01:22:11 10° 134° (SE) 2,387 6.8 -17.6°
Maximum altitude 01:27:08 43° 65° (ENE) 1,127 4.9 -18.4°
Drops below altitude 10° 01:32:06 10° 355° (N) 2,394 7.0 -19.1°
Sets 01:34:32 0° 349° (N) 3,327 7.8 -19.5°
